DateTimeUTC,F1_A11,F1_S11,BsB_S11,BsG_S11,BsR_S11,BbsB_S11,BbsG_S11,BbsR_S11,BaB_A11,BaG_A11,BaR_A11,Tu_S11,T_S11,Uu_S11,U_S11,P_S11,T1_A11
2021-09-03T23:00:00Z,00000200,20000000,,,,,,,-000.40,0000.17,0000.02,19.2,25.8,04.9,03.3,0667.9,31.1
2021-09-03T23:01:00Z,00000200,20000000,,,,,,,-000.03,-000.11,0000.19,19.2,25.8,04.8,03.2,0667.9,31.1
2021-09-03T23:02:00Z,00000200,20000000,,,,,,,-000.00,0000.01,-000.25,19.2,25.9,04.8,03.2,0667.9,31.1
2021-09-03T23:03:00Z,00000200,60000000,,,,,,,0000.16,0000.27,0000.28,19.2,25.9,04.8,03.2,0667.9,31.1
2021-09-03T23:04:00Z,00000200,40000000,0001.25,0001.08,0000.76,0000.02,0000.20,0000.25,0000.37,0000.22,0000.03,19.3,25.7,04.7,03.2,0668.8,31.1
2021-09-03T23:05:00Z,00000200,00000000,0001.00,0001.09,0000.97,0000.27,0000.12,0000.59,0000.46,0000.31,0000.04,19.4,25.6,04.7,03.2,0668.8,31.1
2021-09-03T23:06:00Z,00000200,00000000,0002.76,0001.62,0000.63,0000.67,0000.07,0000.36,0000.13,0000.20,0000.28,19.3,25.6,04.7,03.2,0668.8,31.1
2021-09-03T23:07:00Z,00000200,00000000,0001.51,0001.54,0000.58,-000.10,0000.25,0000.21,0000.38,0000.20,0000.32,19.3,25.6,04.8,03.2,0668.8,31.1
2021-09-03T23:08:00Z,00000200,00000000,0001.25,0001.58,0000.97,0000.08,0000.34,0000.45,0000.34,0000.51,0000.37,19.3,25.6,04.7,03.2,0668.8,31.1
2021-09-03T23:09:00Z,00000200,00000000,0002.09,0001.02,0000.73,0000.23,0000.38,0000.26,0000.47,0000.55,0000.33,19.3,25.6,04.7,03.2,0668.8,31.1
2021-09-03T23:10:00Z,00000200,00000000,0001.59,0001.32,0000.92,0000.29,0000.37,0000.54,0000.34,0000.26,0000.30,19.3,25.6,04.7,03.2,0668.8,31.1
2021-09-03T23:11:00Z,00000200,00000000,0001.16,0001.46,0000.89,0000.82,0000.25,0000.01,0000.25,0000.39,-000.03,19.3,25.5,04.7,03.2,0668.8,31.1
2021-09-03T23:12:00Z,00000200,00000000,0001.64,0001.50,0001.17,0000.29,0000.47,0000.20,0000.41,-000.10,0000.30,19.3,25.5,04.6,03.2,0668.8,31.1
2021-09-03T23:13:00Z,00000200,00000000,0001.24,0001.45,0001.18,0001.06,0000.21,0000.15,0000.50,0000.53,0000.23,19.3,25.5,04.6,03.2,0668.8,31.1
2021-09-03T23:14:00Z,00000200,00000000,0002.18,0001.29,0000.96,0000.22,0000.21,0000.26,0000.11,0000.13,0000.29,19.3,25.6,04.6,03.2,0668.8,31.1
2021-09-03T23:15:00Z,00000200,00000000,0000.91,0001.22,0000.74,-000.41,0000.36,0000.26,0000.17,0000.53,0000.43,19.3,25.6,04.6,03.2,0668.8,31.1
2021-09-03T23:16:00Z,00000200,00000000,0001.78,0001.44,0000.55,0000.51,0000.21,0000.44,0000.73,0000.32,0000.28,19.3,25.6,04.6,03.1,0668.8,31.1
2021-09-03T23:17:00Z,00000200,00000000,0001.87,0001.60,0001.19,-000.27,0000.35,0000.37,0000.17,0000.25,0000.05,19.3,25.5,04.6,03.2,0668.8,31.1
2021-09-03T23:18:00Z,00000200,00000000,0002.34,0001.44,0000.80,-000.34,0000.22,0000.01,0000.27,0000.13,0000.08,19.4,25.6,04.5,03.1,0668.8,31.1
2021-09-03T23:19:00Z,00000200,00000000,0001.62,0001.25,0000.92,0000.16,0000.15,0000.11,0000.68,0000.41,0000.22,19.3,25.5,04.5,03.1,0668.8,31.1
2021-09-03T23:20:00Z,00000200,00000000,0000.83,0001.21,0000.74,0000.69,0000.14,0000.47,0000.01,0000.14,0000.42,19.3,25.5,04.5,03.1,0668.8,31.1
2021-09-03T23:21:00Z,00000200,00000000,0001.87,0001.40,0000.92,0000.28,0000.31,0000.17,0000.35,0000.88,0000.28,19.3,25.5,04.5,03.1,0668.8,31.1
2021-09-03T23:22:00Z,00000200,00000000,0002.76,0001.16,0000.78,-000.12,0000.26,0000.17,0000.74,0000.12,0000.40,19.3,25.5,04.5,03.0,0668.8,31.1
2021-09-03T23:23:00Z,00000200,00000000,0002.12,0001.38,0000.87,-000.44,0000.12,0000.15,0000.34,0000.56,0000.33,19.3,25.5,04.5,03.1,0668.8,31.1
2021-09-03T23:24:00Z,00000200,00000000,0001.55,0001.33,0001.07,0000.60,0000.47,0000.47,0000.22,0000.13,0000.08,19.2,25.5,04.4,03.0,0668.8,31.1
2021-09-03T23:25:00Z,00000200,00000000,0002.00,0001.57,0001.26,0000.27,0000.50,0000.08,0000.23,0000.32,0000.44,19.2,25.5,04.5,03.1,0668.8,31.1
2021-09-03T23:26:00Z,00000200,00000000,0002.30,0001.56,0001.08,0000.48,0000.36,0000.30,0000.61,0000.52,0000.21,19.2,25.5,04.5,03.1,0668.8,31.1
2021-09-03T23:27:00Z,00000200,00000000,0001.81,0001.42,0000.95,0000.20,0000.15,0000.04,0000.57,0000.39,0000.40,19.2,25.5,04.5,03.1,0668.8,31.1
2021-09-03T23:28:00Z,00000200,00000000,0001.83,0001.81,0001.07,0000.07,0000.38,0000.30,0000.50,0000.57,0000.49,19.2,25.5,04.5,03.1,0668.7,31.1
2021-09-03T23:29:00Z,00000200,00000000,0001.73,0001.45,0001.22,0000.42,0000.43,0000.41,0000.48,0000.32,0000.06,19.3,25.5,04.4,03.0,0668.7,31.1
2021-09-03T23:30:00Z,00000200,00000000,0001.48,0001.28,0000.73,0000.07,0000.62,0000.06,0000.28,0000.51,0000.43,19.4,25.6,04.4,03.0,0668.7,31.1
2021-09-03T23:31:00Z,00000200,00000000,0002.28,0001.23,0000.61,0000.74,0000.54,0000.14,0000.35,0000.28,0000.28,19.4,25.5,04.4,03.0,0668.7,31.1
2021-09-03T23:32:00Z,00000200,00000000,0001.88,0001.46,0000.96,0000.29,0000.30,0000.38,0000.72,0000.19,0000.10,19.4,25.5,04.4,03.0,0668.7,31.1
2021-09-03T23:33:00Z,00000200,00000000,0002.68,0001.63,0000.78,0000.18,0000.09,0000.22,0000.24,0000.39,0000.38,19.4,25.5,04.3,03.0,0668.7,31.1
2021-09-03T23:34:00Z,00000200,00000000,0001.83,0001.61,0001.04,-000.12,0000.45,0000.66,0000.45,0000.55,0000.24,19.3,25.5,04.3,02.9,0668.7,31.1
2021-09-03T23:35:00Z,00000200,00000000,0001.85,0001.41,0001.15,-000.49,0000.08,0000.21,0000.30,0000.46,0000.32,19.3,25.5,04.4,03.0,0668.7,31.1
2021-09-03T23:36:00Z,00000200,00000000,0002.32,0001.80,0001.18,-000.11,0000.17,0000.43,0000.40,-000.13,0000.51,19.3,25.5,04.3,02.9,0668.7,31.1
2021-09-03T23:37:00Z,00000200,00000000,0001.93,0001.40,0000.85,0000.87,0000.20,0000.43,0000.52,0000.56,0000.11,19.3,25.5,04.3,02.9,0668.7,31.1
2021-09-03T23:38:00Z,00000200,00000000,0002.00,0001.54,0000.99,0000.48,0000.30,0000.28,0000.34,0000.31,-000.12,19.3,25.5,04.2,02.9,0668.7,31.1
2021-09-03T23:39:00Z,00000200,00000000,0001.76,0001.54,0000.91,0001.31,0000.16,0000.15,0000.46,0000.62,0000.69,19.3,25.5,04.2,02.9,0668.7,31.1
2021-09-03T23:40:00Z,00000200,00000000,0001.54,0001.30,0000.67,0000.03,0000.08,0000.26,0000.09,0000.25,0000.17,19.3,25.5,04.2,02.9,0668.7,31.1
2021-09-03T23:41:00Z,00000200,00000000,0001.37,0001.57,0001.31,-000.01,-000.01,0000.73,0000.86,0000.49,0000.40,19.2,25.5,04.2,02.8,0668.7,31.1
2021-09-03T23:42:00Z,00000200,00000000,0001.48,0001.30,0000.88,0000.12,0000.32,0000.02,0000.32,0000.42,0000.45,19.2,25.4,04.2,02.9,0668.7,31.1
2021-09-03T23:43:00Z,00000200,00000000,0002.53,0001.57,0000.82,0000.09,-000.02,0000.05,0000.72,0000.46,0000.32,19.3,25.4,04.2,02.9,0668.7,31.1
2021-09-03T23:44:00Z,00000200,00000000,0002.07,0001.29,0001.09,0000.35,0000.12,0000.23,0000.05,0000.38,0000.22,19.3,25.5,04.2,02.9,0668.7,31.1
2021-09-03T23:45:00Z,00000200,00000000,0001.29,0000.85,0000.79,-000.03,-000.07,0000.29,0000.25,0000.19,0000.39,19.4,25.6,04.1,02.8,0668.7,31.1
2021-09-03T23:46:00Z,00000200,00000000,0001.39,0001.30,0000.76,-000.56,0000.43,0000.30,0000.48,0000.44,0000.51,19.5,25.6,04.1,02.8,0668.7,31.1
2021-09-03T23:47:00Z,00000200,00000000,0001.62,0001.61,0000.88,0000.14,0000.55,0000.23,0000.50,0000.27,-000.36,19.5,25.6,04.1,02.8,0668.7,31.1
2021-09-03T23:48:00Z,00000200,00000000,0001.14,0001.09,0000.71,-000.13,0000.14,-000.12,0000.24,0000.32,0000.44,19.5,25.6,04.1,02.8,0668.7,31.1
2021-09-03T23:49:00Z,00000200,00000000,0002.05,0001.30,0000.98,-000.07,0000.48,0000.20,0000.11,0000.08,0000.06,19.4,25.6,03.9,02.7,0668.7,31.1
2021-09-03T23:50:00Z,00000200,00000000,0000.58,0000.82,0000.57,-000.31,0000.36,-000.03,0000.28,-000.00,0000.10,19.4,25.6,03.9,02.7,0668.7,31.1
2021-09-03T23:51:00Z,00000200,00000000,0001.15,0001.01,0000.38,-000.20,0000.08,0000.22,0000.13,0000.47,0000.46,19.4,25.6,04.0,02.7,0668.7,31.1
2021-09-03T23:52:00Z,00000200,00000000,0001.44,0000.63,0000.98,0000.57,0000.44,-000.06,0000.25,0000.46,-000.10,19.4,25.5,03.9,02.7,0668.7,31.1
2021-09-03T23:53:00Z,00000200,00000000,0001.12,0000.75,0000.42,-000.18,0000.24,0000.24,0000.07,0000.15,0000.27,19.3,25.5,03.9,02.6,0668.8,31.1
2021-09-03T23:54:00Z,00000200,00000000,0001.22,0001.23,0000.65,-000.74,0000.12,0000.32,0000.56,0000.17,0000.25,19.3,25.5,03.9,02.7,0668.8,31.1
2021-09-03T23:55:00Z,00000200,00000000,0001.55,0000.85,0000.38,-000.33,0000.29,0000.27,0000.26,0000.23,0000.03,19.3,25.5,03.8,02.6,0668.7,31.1
2021-09-03T23:56:00Z,00000200,00000000,0000.98,0000.88,0000.46,0000.52,-000.04,-000.01,0000.41,0000.21,0000.37,19.3,25.5,03.9,02.7,0668.7,31.1
2021-09-03T23:57:00Z,00000200,40000000,,,,,,,0000.10,0000.18,0000.08,19.3,25.5,03.5,02.4,0668.7,31.1
2021-09-03T23:58:00Z,00000200,60000000,,,,,,,-000.13,-000.03,-000.23,19.0,25.6,04.1,02.7,0667.7,31.1
2021-09-03T23:59:00Z,00000200,20000000,,,,,,,-000.14,0000.05,-000.04,18.9,25.7,03.9,02.6,0667.7,31.1
